Location: Tomatin
(57.3367°N, 3.9908°W)
Time: 13:27:56
(UTC+01:00)

ISS - Visible Passes

Search period start: 18 July 2018 00:00
Search period end: 28 July 2018 00:00
Orbit: 402 x 408 km, 51.6° (Epoch: 18 July)

Date Brightness Start Highest point End Pass type
(mag) Time Alt. Az. Time Alt. Az. Time Alt. Az.
18 Jul -2.7 01:22:46 16° SSW 01:24:31 25° SSE 01:27:18 10° ESE visible
18 Jul -2.9 02:57:35 10° WSW 03:00:30 29° S 03:03:25 10° SE visible
19 Jul -2.5 00:30:34 13° SSW 00:32:36 21° SSE 00:35:11 10° ESE visible
19 Jul -3.0 02:05:36 10° WSW 02:08:32 30° S 02:11:30 10° ESE visible
19 Jul -2.5 03:41:54 10° WSW 03:44:28 21° SSW 03:47:02 10° SSE visible
19 Jul -2.2 23:38:32 10° SSW 23:40:43 17° SSE 23:42:55 10° ESE visible
20 Jul -3.0 01:13:40 10° SW 01:16:35 29° S 01:19:30 10° ESE visible
20 Jul -2.8 02:49:46 10° WSW 02:52:33 25° SSW 02:55:19 10° SE visible
21 Jul -2.9 00:21:47 10° SW 00:24:36 26° SSE 00:27:26 10° ESE visible
21 Jul -2.9 01:57:41 10° WSW 02:00:35 28° S 02:03:28 10° SE visible
21 Jul -2.1 03:34:24 10° WSW 03:36:24 15° SSW 03:38:23 10° S visible
21 Jul -2.6 23:30:00 10° SW 23:32:39 22° SSE 23:35:18 10° ESE visible
22 Jul -3.0 01:05:40 10° WSW 01:08:35 30° S 01:11:31 10° ESE visible
22 Jul -2.4 02:42:02 10° WSW 02:44:29 19° SSW 02:46:56 10° SSE visible
23 Jul -3.0 00:13:39 10° WSW 00:16:35 30° S 00:19:31 10° ESE visible
23 Jul -2.7 01:49:50 10° WSW 01:52:32 24° SSW 01:53:14 22° S visible
23 Jul -2.9 23:21:43 10° SW 23:24:34 27° S 23:27:26 10° ESE visible
24 Jul -2.9 00:57:41 10° WSW 01:00:33 27° S 01:01:36 22° SSE visible
25 Jul -2.9 00:05:36 10° WSW 00:08:31 29° S 00:10:36 16° SE visible
25 Jul -1.8 01:42:05 10° WSW 01:43:12 15° SW 01:43:12 15° SW visible
25 Jul -2.9 23:13:33 10° WSW 23:16:28 30° S 23:19:25 10° ESE visible
26 Jul -2.5 00:49:47 10° WSW 00:52:25 22° SSW 00:52:25 22° SSW visible
26 Jul -2.7 23:57:35 10° WSW 00:00:23 26° SSW 00:01:42 20° SSE visible
27 Jul -2.8 23:05:26 10° WSW 23:08:20 29° S 23:11:03 11° SE visible
